www.pogodaiklimat.ru

Погода и климат >> Архив погоды >> Россия >> Ямало-Ненецкий АО >> Харп


ПОГОДА в Харпе

  • Прогноз погоды в Харпе
  • Монитор погоды в Харпе

АРХИВ ПОГОДЫ в Харпе

Время (UTC), дата Ветер
(напр.,м/с)
 
Видим.   Явления Облачность Т
(С)
Тd
(С)
f
(%)
Тe
(С)
Тes
(С)
Комфортность P
(гПа)
Po
(гПа)
Тmin
(С)
Tmax
(С)
R
(мм)
R24
(мм)
S
(см)
18 10.02 ЮЗ 1 н/о н/о -22.4 -25.9 73 -26 -26 1013.5 1003.1
21 10.02 ЮЗ 1 н/о н/о -21.2 -24.6 74 -24 -24 1012.8 1002.5
00 11.02 ЮЗ 1 н/о н/о -20.0 -23.4 74 -23 -23 1012.3 1002.0
03 11.02 ЮЗ 1 н/о н/о -19.2 -22.3 76 -22 -22 1012.2 1001.9 -24.2
06 11.02 ЮЗ 2 н/о н/о -17.9 -21.0 77 -23 -23 1011.5 1001.3
09 11.02 ЮЗ 2 н/о н/о -16.6 -19.9 76 -22 -22 1011.0 1000.9
12 11.02 Ю 1 н/о н/о -16.4 -19.3 78 -19 -19 1010.6 1000.5
15 11.02 штиль 0 н/о н/о -18.2 -21.1 78 -18 -18 1011.0 1000.8 -16.0
18 11.02 штиль 0 н/о н/о -16.8 -19.5 80 -17 -17 1010.5 1000.4
21 11.02 ЮВ 1 н/о н/о -15.4 -18.2 79 -18 -18 1009.9 999.9
00 12.02 ЮВ 1 н/о н/о -14.3 -16.8 81 -17 -17 1009.7 999.6
03 12.02 З 1 н/о н/о -15.9 -18.3 82 -19 -19 1009.6 999.5 -18.9
06 12.02 штиль 0 н/о н/о -14.7 -17.2 81 -15 -15 1009.9 999.8
09 12.02 С 5 н/о н/о -5.1 -9.0 74 -12 -12 1009.6 999.9
12 12.02 ЮЗ 2 н/о н/о -11.9 -14.1 84 -16 -16 1011.2 1001.2
15 12.02 ЮЗ 1 н/о н/о -12.7 -14.9 84 -15 -15 1012.5 1002.5 -5.0
18 12.02 ЮЗ 1 н/о н/о -17.4 -19.9 81 -20 -20 1012.5 1002.3
21 12.02 З 2 н/о н/о -17.9 -20.3 81 -23 -23 1012.1 1001.9
00 13.02 штиль 0 н/о н/о -16.4 -18.8 82 -16 -16 1011.2 1001.0
06 13.02 штиль 0 н/о н/о -13.0 -15.1 84 -13 -13 1008.6 998.6
09 13.02 ЮВ 1 н/о н/о -10.9 -13.2 83 -13 -13 1007.9 998.0
12 13.02 ЮВ 1 н/о н/о -10.3 -12.4 85 -13 -13 1007.1 997.2
15 13.02 ЮВ 2 н/о н/о -9.9 -11.8 86 -14 -14 1006.3 996.4 -10.0
18 13.02 Ю 1 н/о н/о -9.1 -11.0 86 -11 -11 1005.9 996.1
21 13.02 ЮВ 1 н/о н/о -8.5 -10.4 86 -11 -11 1005.4 995.6
00 14.02 ЮВ 1 н/о н/о -9.7 -11.3 88 -12 -12 1004.4 994.5
03 14.02 штиль 0 н/о н/о -10.6 -12.3 87 -11 -11 1003.1 993.3 -11.8
09 14.02 штиль 0 н/о н/о -7.3 -9.3 86 -8 -8 997.6 987.9
15 14.02 С 6-11
{11}
н/о н/о -8.2 -12.5 71 -16 -16 998.7 989.0 -6.9
18 14.02 С 8-13
{13}
н/о н/о -13.2 -18.1 67 -24 -24 1001.9 992.0
21 14.02 С 8-15
{15}
н/о н/о -16.6 -21.4 66 -28 -28 1005.5 995.4
00 15.02 С 6-11
{15}
н/о н/о -17.9 -22.6 67 -28 -28 1008.7 998.5
03 15.02 С 8-13
{13}
н/о н/о -18.6 -22.7 70 -31 -31 опасность
обморожения
1010.0 999.8 -18.4
06 15.02 З 3
{13}
н/о н/о -19.1 -23.5 68 -27 -27 1010.6 1000.4 -18.8
09 15.02 ЮЗ 1 н/о н/о -16.1 -21.5 63 -19 -19 1011.3 1001.2
12 15.02 Ю 1 н/о н/о -24.5 -27.5 76 -28 -28 1010.9 1000.4
15 15.02 ЮЗ 2 н/о н/о -30.9 -34.7 69 -39 -39 опасность
обморожения
1011.0 1000.3 -16.1
18 15.02 ЮЗ 1 н/о н/о -34.6 -38.9 65 -39 -39 опасность
обморожения
1010.5 999.6
21 15.02 штиль 0 н/о н/о -34.3 -38.6 65 -34 -34 опасность
обморожения
1009.6 998.7
00 16.02 ЮЗ 1 н/о н/о -33.5 -37.8 65 -38 -38 опасность
обморожения
1008.2 997.4
03 16.02 ЮЗ 1 н/о н/о -33.7 -38.0 65 -38 -38 опасность
обморожения
1007.3 996.5 -35.3
06 16.02 ЮЗ 1 н/о н/о -30.8 -34.7 68 -35 -35 опасность
обморожения
1006.3 995.7
09 16.02 ЮВ 2 н/о н/о -25.4 -28.8 73 -32 -32 опасность
обморожения
1004.6 994.2
12 16.02 ЮВ 3 н/о н/о -26.5 -30.0 72 -35 -35 опасность
обморожения
1003.4 992.9
15 16.02 ЮВ 3 н/о н/о -27.0 -30.5 72 -36 -36 опасность
обморожения
1001.7 991.2 -24.6

 

Местоположение метеостанции Харп (Ямало-Ненецкий АО, Россия): широта 66.80 долгота 65.78 высота над уровнем моря 76 м.

В архиве по умолчанию представлена погода в Харпе за последнюю неделю. Архивные данные за месяц целиком и за предыдущие месяцы, начиная с января 2011 года, Вы можете получить, выбрав интересующий диапазон дат из раскрывающегося списка и нажав кнопку "Ввод!".


*Определитесь, кто Вы:
робот инопланетянин человек

Внимание! Время в таблицах - всемирное. Для получения местного времени необходимо прибавить поправку, которая равна 5 ч.

Смотрите также архив погоды в соседних городах и на ближайших метеорологических станциях:

Погода в Салехарде (Ямало-Ненецкий АО, Россия) (49 км)
Погода в Елецкой (Коми, Россия) (80 км)
Погода в Белоярске (Ямало-Ненецкий АО, Россия) (103 км)
Погода в Питляре (Ямало-Ненецкий АО, Россия) (108 км)
Погода в Воркуте (Коми, Россия) (109 км)
Погода в Полуе (Ямало-Ненецкий АО, Россия) (155 км)
Погода в Мужах (Ямало-Ненецкий АО, Россия) (165 км)
Погода в Петруни (Коми, Россия) (225 км)
Погода в Усть-Каре (Ненецкий АО, Россия) (275 км)
Погода в Ныде (Ямало-Ненецкий АО, Россия) (315 км)

Пояснения к столбцам:

Ветер - указаны скорость ветра в м/с - средняя за 10 мин, порывы в срок и между сроками (в фигурных скобках) и направление, откуда дует ветер: С - северный, СВ - северо-восточный, В - восточный, ЮВ - юго-восточный, Ю - южный, ЮЗ - юго-западный, З - западный, СЗ - северо-западный.
Видимость - горизонтальная дальность видимости в метрах или километрах. При видимости от 1 до 10 км при отсутствии осадков обычно наблюдается дымка, при ухудшении видимости до 1 км и менее - туман. В сухую погоду видимость может ухудшаться дымом, пылью или мглою.
Явления - указаны атмосферные явления, наблюдавшиеся в срок или в последний час перед сроком; фигурными скобками обозначены явления, наблюдавшиеся между сроками (за 1-3 часа до срока); квадратными скобками обозначены град или гололедные отложения с указанием их диаметра в мм.
Облачность - указаны через наклонную черту общая и нижняя облачность в баллах и высота нижней границы облаков в метрах; квадратными скобками обозначены формы облаков: Ci - перистые, Cs - перисто-слоистые, Cc - перисто-кучевые, Ac - высококучевые, As - высокослоистые, Sc - слоисто-кучевые, Ns - слоисто-дождевые, Cu - кучевые, Cb - кучево-дождевые. Подробнее классификацию облаков см. в Атласе облаков (PDF).
T - Температура воздуха - температура, измеренная на высоте 2 м над землей.
Td - Температура точки росы - температура, при понижении до которой содержащийся в воздухе водяной пар достигнет насыщения.
f - Относительная влажность воздуха - влажноcть воздуха, измеренная на высоте 2 м над землей.
Te - Эффективная температура - температура, которую ощущает одетый по сезону человек в тени. Характеристика душности погоды. При расчете учитывается влияние влажности воздуха и скорости ветра на теплоощущения человека.
Tes - Эффективная температура на солнце - температура, которую ощущает человек, с поправкой на солнечный нагрев. Характеристика знойности погоды. Зависит от высоты солнца над горизонтом, облачности и скорости ветра. Ночью, в пасмурную погоду, а также при ветре 12 м/с и более поправка равна нулю.
P - Атмосферное давление - приведенное к уровню моря атмосферное давление.
Po - Атмосферное давление - измеренное на уровне метеостанции атмосферное давление.
Tmin - Минимальная температура - минимум температуры воздуха на высоте 2 м над землей.
Tmax - Максимальная температура - максимум температуры воздуха на высоте 2 м над землей.
R - Количество осадков - Количество выпавших осадков за период времени, мм. При наведении курсора мыши на число - период времени, за который выпало указанное количество осадков.
R24 - Количество осадков - Количество выпавших осадков за 24 часа, мм.
S - Снежный покров - Высота снежного покрова, см. При наведении курсора мыши на число - состояние снежного покрова и степень покрытия местности в баллах.